Погода в Анадыре

Погода в Анадыре : погода сейчас, прогноз погоды и архив. Всё, что Вы хотите узнать о погоде в Анадыре!

Хотите узнать прогноз погоды в Анадыре? Тогда Вам сюда: Погода в Анадыре

Поиск расширенной информации на нашем сайте:

Другие новости

Новости СМИ2

Главная страница сайта

Новости сайта

02.10.2013

Напоминаем, что на нашем новом сайте вы можете получить высокодетализированные прогнозы погоды по пунктам России, СНГ и мира (включающие важные для авиации метеовеличины, такие как направление и скорость ветра, видимость, явления погоды, количество и форма облачности, нижняя и верхняя граница облачности), а также ознакомиться с разнообразными материалами по авиационной метеорологии и подборкой полезных ссылок на эту тему.

Сайт Метеоцентр.Азия посвящён разработке технологий оптимизации авиаметеорологического обслуживания, включая проектирование и перспективное создание нескольких автоматизированных авиаметеорологических систем:
- система выпуска высокодетальных прогностических карт явлений погоды для нижнего воздушного пространства по России и ближнему зарубежью;
- система верификации прогнозов TAF (выпускаемых синоптиками официальных АМСГ РФ и ближнего зарубежья) и AUTOTAF (выпускаемых сайтом Метеоцентр.Азия) - выявление ошибок, онлайн-сопоставление с фактической погодой METAR, автоматическое внесение коррективов в прогнозы при резком отклонении фактической погоды от прогноза, подсчёт оправдываемости прогнозов по элементам и в целом;
- система обработки, анализа и отображения авиаметеорологической информации для применения провайдерами метеорологической информации.


Погода в Анадыре - сегодня

Время (UTC), дата Ветер
(°,м/с) 
Видим.   Явления Облачность Т
(°С)
Тd
(°С)
f(%) Тe
(°С)
Pmin
(гПа)
dP
(гПа)
Po
(мм)
O2
(г/м3)
Тmin Tmax R s Состояние
почвы
15 19.06.17 180 (Ю) 9{12}  0100 м  туман  ?/?  
+6.2 +6 99 +3  1007.3  -0.5  750  294           
18 19.06.17 180 (Ю) 7{09}  0200 м  туман  ?/?  
+6.6 +6.4 99 +4  1006.8  -0.4  750  294  +5.7        влажная 
21 19.06.17 180 (Ю) 5{07}  0400 м  туман  ?/?  
+7.1 +6.8 98 +5  1006.7  -0.1  749  293           
03 20.06.17 140 (ЮВ) 5{07}  7000 м  в посл. час туман  3/3 600 м 
[Cu med, cong]
+9.8 +8.4 91 +9  1004.4  -1.5  748  289           
06 20.06.17 140 (ЮВ) 7{09}  7000 м  туман на расстоянии  1/1 600 м 
[Cu med, cong]
+9 +8 93 +7  1003.4  -1  747  290    +10.1       
09 20.06.17 180 (Ю) 5{07}  5000 м  туман на расстоянии  1/1 600 м 
[Sc diur, vesp]
+8.6 +7.7 94 +7  1003.2  -0.2  747  290           
12 20.06.17 140 (ЮВ) 3{05}  20000 м    3/1 600 м верхняя 
[Sc diur, vesp|Ci fib]
+10.6 +7.7 82 +10  1003  -0.2  747  288           
15 20.06.17 140 (ЮВ) 5{07}  20000 м    5/5 600 м 
[Cu Sc]
+8.9 +7.4 90 +7  1002.8  -0.2  747  290           
18 20.06.17 140 (ЮВ) 5{07}  1000 м  туман на расстоянии  1/1 600 м 
[Cu hum]
+9.4 +8 91 +8  1003.9  1.1  747  290  +8.2        сухая 
00 21.06.17 180 (Ю) 7{09}  20000 м  {туман}  3/3 600 м 
[Cu hum]
+12.5 +8.2 75 +11  1005.2  0.5  748  287           
03 21.06.17 160 (Ю) 7{09}  20000 м    5/5 600 м 
[Cu med, cong]
+13.4 +8.2 71 +12  1005.2  748  286           
06 21.06.17 160 (Ю) 5{07}  20000 м    3/3 600 м верхняя 
[Cu med, cong|Ci fib]
+12.4 +9.3 81 +12  1005.9  0.7  749  287    +14       
09 21.06.17 180 (Ю) 5{07}  20000 м    3/1 600 м верхняя 
[Cu hum|Ci fib]
+13.2 +9.5 78 +13  1007.2  1.3  750  287           
12 21.06.17 180 (Ю) 3{05}  20000 м    4/3 600 м верхняя 
[Sc diur, vesp|Ci fib]
+10.8 +6.8 76 +10  1009.3  751  290           
15 21.06.17 180 (Ю) 5{07}  20000 м    8/0 средняя, верхняя 
[Ac trans|Cc]
+8.2 +6.2 87 +7  1010.7  1.4  752  293           
18 21.06.17 140 (ЮВ) 7{09}  20000 м    5/1 600 м верхняя 
[Cu hum|Ci fib]
+9.4 +5.9 79 +7  1011.7  753  292  +7.8        сухая 
21 21.06.17 140 (ЮВ) 9{12}  20000 м    5/3 600 м верхняя 
[Sc diur, vesp|Ci fib]
+12.1 +7.1 71 +10  1012.2  0.6  754  290           
00 22.06.17 160 (Ю) 9{12}  20000 м    5/5 600 м кучево-дожд. 
[Cb cap]
+13.7 +7.1 64 +12  1012.7  0.5  754  288           
03 22.06.17 160 (Ю) 12{15}  20000 м    4/3 600 м кучево-дожд., верхняя 
[Cb cap|Ci fib]
+14.4 +6.8 60 +13  1012.4  -0.3  754  287           
06 22.06.17 140 (ЮВ) 12{15}  20000 м    8/6 600 м кучево-дожд., средняя, верхняя 
[Cb cap|Ac trans|Ci fib]
+14 +5.6 57 +12  1012.3  -0.1  754  288    +15       
09 22.06.17 140 (ЮВ) 7{15}  20000 м    9/8 600 м кучево-дожд., верхняя 
[Cb cap|Ci fib]
+12.8 +6.2 64 +12  1012.9  0.6  754  289           
12 22.06.17 140 (ЮВ) 7{09}  20000 м    9/9 600 м кучево-дожд., средняя 
[Cb cap|Ac trans]
+11 +7.7 80 +9  1013.3  0.2  754  291           
15 22.06.17 140 (ЮВ) 5{07}  20000 м    9/9 600 м кучево-дожд., средняя 
[Cb cap|Ac trans]
+10.7 +8.5 86 +10  1013.4  0.1  754  291           
18 22.06.17 180 (Ю) 5{07}  20000 м  слаб. ливневой дождь  10/10 600 м кучево-дожд. 
[Cb cap]
+10.4 +8.1 86 +9  1013.5  0.1  755  291  +10    0.0    сухая 
21 22.06.17 180 (Ю) 5{07}  20000 м  слаб. ливневой дождь  10/10 300 м кучево-дожд. 
[Cb cap]
+10.9 +9.9 94 +11  1012.8  -0.7  754  290           
Время (UTC), дата Ветер
(°,м/с) 
Видим.   Явления Облачность Т
(°С)
Тd
(°С)
f(%) Тe
(°С)
Pmin
(гПа)
dP
(гПа)
Po
(мм)
O2
(г/м3)
Тmin Tmax R s Состояние
почвы

Для получения пояснительной информации подведите курсор к названию столбца.

ПОГОДА в Анадыре - архив

Всё, что Вы хотите узнать о погоде в Анадыре - удобно и подробно!

Выберите нужную дату (начиная с 1 января 2015* года) и нажмите кнопку "Найти".
Будут отображены архивные сводки погоды по пункту Анадырь, начиная с указанной даты.


Отображать данные в формате CSV (для использования в таблицах Excel)


Внимание! Наш архив погоды предназначен исключительно для личного некоммерческого использования в познавательных целях. Если Вам необходимы официальные справки о состоянии погоды (для производственных, юридических, коммерческих и т.п. целей), обращайтесь в органы Росгидромета.

*Примечание: данная дата относится к архиву по метеостанциям СССР (Россия, СНГ, Балтия).
Архив по метеостанциям Зарубежной Европы и Азии (кроме Китая) хранится 10 дней, по другим регионам земного шара (Китай, Африка, Америка, Австралия, Океания) - 1 день.

Анадырь - район местоположения метеостанции


Название, широта, долгота, высота метеостанции:
Анадырь (город) 64.8°ш. 177.6°д. 61 м над ур. моря [Российская Федерация]

Дополнительная информация

В oтличие oт бoльшинства пoгoдных сайтoв мы публикуем пoдрoбную метеoинфoрмацию в детальнoм прoфессиoнальнoм фoрмате.

Характеристики температуры и влажнoсти вoздуха измеряются на высoте 2 м в тени вдали oт зданий и деревьев.
Скoрoсть ветра измеряется на высoте 10 м (на урoвне рoста челoвека скoрoсть ветра ниже в 1.5-2 раза). Если метеoстанция нахoдится в гoрoде или в лесу, тo скoрoсть ветра занижена на 2-4 м/с пo сравнению с oткрытым местoм. Скoрoсть ветра над акватoриями крупных рек и oзёр, а также на вершинах хoлмoв на 2-5 м/с выше, чем в oбычных услoвиях.
Атмoсфернoе давление в разных тoчках местнoсти мoжет значительнo oтличаться oт давления на метеoстанции, в зависимoсти oт услoвий рельефа (при пoдъёме на 10 м давление пoнижается примернo на 1 мм рт.ст.).